Duluth, MN

12:45 AM CDT on June 24, 2017 (GMT -0500)
Duluth International

Weather History for KDLH - May, 2014

Change the Weather History Date:

Saturday, May 3, 2014

  Actual Average Record
Temperature  
Mean Temperature 44 °F 47 °F  
Max Temperature 53 °F 58 °F 85 °F (1952)
Min Temperature 35 °F 37 °F 16 °F (1907)
Degree Days  
Heating Degree Days 21 18  
Month to date heating degree days 67 54  
Since 1 July heating degree days 9833 8893  
Cooling Degree Days 0 0  
Month to date cooling degree days 0 0  
Year to date cooling degree days 0 0  
Moisture  
Dew Point 31 °F    
Average Humidity 62    
Maximum Humidity 85    
Minimum Humidity 39    
Precipitation  
Precipitation T in 0.10 in 1.67 in (1912)
Month to date precipitation 0.10 0.30  
Year to date precipitation 8.16 5.99  
Snow  
Snow 0.00 in 0.00 in 1.90 in (1954)
Month to date snowfall 0.0 0.1  
Since 1 July snowfall 131.0 85.8  
Snow Depth T in    
Sea Level Pressure  
Sea Level Pressure 29.75 in    
Wind  
Wind Speed 15 mph (NW)    
Max Wind Speed 22 mph    
Max Gust Speed 34 mph    
Visibility 10 miles    
Events Rain    
T = Trace of Precipitation, MM = Missing Value Source: NWS Daily Summary

Daily Weather History Graph

Daily Weather History Graph

Search for Another Location

Airport or City:

Trip Planner

Search our weather history database for the weather conditions in past years. The results will help you decide how hot, cold, wet, or windy it might be!

Date:

Astronomy

May. 03, 2014 Rise Set
Actual Time 5:50 AM CDT 8:21 PM CDT
Civil Twilight 5:16 AM CDT 8:55 PM CDT
Nautical Twilight 4:33 AM CDT 9:38 PM CDT
Astronomical Twilight 3:44 AM CDT 10:28 PM CDT
Moon 9:17 AM CDT (5/3) No Moon Set
Length of Visible Light 15h 39m
Length of Day
14h 31m
Waxing Crescent, 20% of the Moon is Illuminated
May 3
Waxing Crescent
May 6
First Quarter
May 14
Full
May 21
Last Quarter
May 28
New

Hourly Weather History & Observations

Time (CDT) Temp. Windchill Dew Point Humidity Pressure Visibility Wind Dir Wind Speed Gust Speed Precip Events Conditions
12:19 AM 43.0 °F 36.4 °F 36.0 °F 76% 29.62 in 10.0 mi WNW 12.7 mph - N/A   Overcast
12:55 AM 42.1 °F 34.2 °F 36.0 °F 79% 29.66 in 10.0 mi WNW 16.1 mph - N/A   Overcast
1:51 AM 41.0 °F 33.5 °F 35.6 °F 81% 29.63 in 10.0 mi NW 13.8 mph - 0.00 in   Overcast
1:55 AM 41.0 °F 33.1 °F 35.1 °F 79% 29.66 in 10.0 mi NW 15.0 mph 23.0 mph 0.00 in   Overcast
2:55 AM 41.0 °F 33.1 °F 35.1 °F 79% 29.67 in 10.0 mi NW 15.0 mph 25.3 mph N/A   Overcast
3:55 AM 39.9 °F 31.8 °F 35.1 °F 83% 29.68 in 10.0 mi NW 15.0 mph 23.0 mph N/A   Overcast
4:17 AM 39.9 °F 31.8 °F 34.0 °F 79% 29.65 in 10.0 mi NW 15.0 mph 21.9 mph N/A   Overcast
4:55 AM 39.2 °F 30.5 °F 33.8 °F 81% 29.66 in 10.0 mi NW 16.1 mph 23.0 mph N/A   Overcast
5:55 AM 39.0 °F 30.3 °F 32.0 °F 76% 29.70 in 10.0 mi NW 16.1 mph 24.2 mph N/A   Overcast
6:14 AM 39.0 °F 31.8 °F 32.0 °F 76% 29.67 in 10.0 mi WNW 11.5 mph - N/A   Overcast
6:55 AM 39.0 °F 31.4 °F 30.9 °F 73% 29.72 in 10.0 mi NW 12.7 mph - N/A   Mostly Cloudy
7:05 AM 39.0 °F 31.4 °F 30.9 °F 73% 29.69 in 10.0 mi NW 12.7 mph - N/A   Scattered Clouds
7:12 AM 39.9 °F 32.5 °F 30.9 °F 70% 29.70 in 10.0 mi NW 12.7 mph 19.6 mph N/A   Mostly Cloudy
7:55 AM 39.9 °F 31.4 °F 32.0 °F 73% 29.75 in 10.0 mi WNW 16.1 mph - N/A   Overcast
8:55 AM 42.1 °F 33.6 °F 32.0 °F 67% 29.75 in 10.0 mi WNW 18.4 mph 24.2 mph N/A   Mostly Cloudy
9:23 AM 43.0 °F 36.4 °F 33.1 °F 68% 29.72 in 10.0 mi NW 12.7 mph - N/A   Mostly Cloudy
9:55 AM 45.0 °F 37.9 °F 32.0 °F 60% 29.76 in 10.0 mi NW 16.1 mph 23.0 mph N/A   Scattered Clouds
10:55 AM 48.0 °F - 30.0 °F 50% 29.78 in 10.0 mi WNW 18.4 mph 24.2 mph N/A   Scattered Clouds
11:55 AM 48.0 °F - 27.0 °F 44% 29.78 in 10.0 mi WNW 16.1 mph 21.9 mph N/A   Mostly Cloudy
12:55 PM 51.1 °F - 28.0 °F 41% 29.78 in 10.0 mi NW 17.3 mph 23.0 mph N/A   Overcast
1:55 PM 50.0 °F - 27.0 °F 41% 29.78 in 10.0 mi WNW 15.0 mph - N/A   Mostly Cloudy
2:55 PM 51.8 °F - 28.4 °F 41% 29.75 in 10.0 mi West 16.1 mph - N/A   Overcast
3:55 PM 50.0 °F - 28.0 °F 43% 29.79 in 10.0 mi NW 13.8 mph 21.9 mph N/A   Overcast
4:55 PM 46.0 °F 39.6 °F 33.1 °F 61% 29.82 in 10.0 mi WNW 15.0 mph - 0.00 in Rain Light Rain
5:55 PM 46.9 °F - 32.0 °F 56% 29.83 in 10.0 mi WNW 13.8 mph 24.2 mph 0.00 in   Overcast
6:55 PM 46.0 °F 39.6 °F 28.0 °F 50% 29.84 in 10.0 mi NW 15.0 mph 28.8 mph N/A   Mostly Cloudy
7:55 PM 43.0 °F 34.8 °F 26.1 °F 51% 29.86 in 10.0 mi NW 18.4 mph 25.3 mph N/A   Mostly Cloudy
8:55 PM 42.1 °F 34.5 °F 25.0 °F 51% 29.88 in 10.0 mi NW 15.0 mph 24.2 mph N/A   Mostly Cloudy
9:55 PM 41.0 °F 34.3 °F 25.0 °F 53% 29.90 in 10.0 mi WNW 11.5 mph - N/A   Overcast
10:55 PM 39.0 °F 31.8 °F 25.0 °F 57% 29.92 in 10.0 mi NW 11.5 mph - N/A   Scattered Clouds
11:55 PM 37.0 °F 30.4 °F 25.0 °F 62% 29.96 in 10.0 mi NW 9.2 mph - N/A   Clear